﻿ブイ番号,年月日,時刻,流向,流速(kt),流向(10m),流速(10m)(kt),流向(30m),流速(30m)(kt),流向(100m),流速(100m)(kt),浮体方位,水温,風向,風速(m／s),波数,最高波高,最高波周期,1／10最大波高,1／10最大波周期,有義波高,有義波周期,平均波高,平均波周期,波向
B12,2023-01-01,00:00:00,,,247.0,0.18077753779697625,217.0,0.5909287257019439,104.0,0.6609071274298056,203,18.8,319,6.2,,,,,,,,,,
B12,2023-01-01,01:00:00,,,264.0,0.0408207343412527,218.0,0.6006479481641469,100.0,0.5909287257019439,200,18.8,319,5.8,,,,,,,,,,
B12,2023-01-01,02:00:00,,,251.0,0.09913606911447084,210.0,0.4393088552915767,88.0,0.4801295896328294,200,18.7,319,7.59,,,,,,,,,,
B12,2023-01-01,03:00:00,,,251.0,0.250755939524838,223.0,0.41015118790496763,98.0,0.7192224622030238,200,18.8,326,8.07,,,,,,,,,,
B12,2023-01-01,04:00:00,,,265.0,0.27991360691144707,227.0,0.4801295896328294,119.0,0.8397408207343413,196,18.8,329,8.62,,,,,,,,,,
B12,2023-01-01,05:00:00,,,231.0,0.20993520518358533,213.0,0.41987041036717065,85.0,0.8008639308855292,200,18.8,338,9.0,,,,,,,,,,
B12,2023-01-01,06:00:00,,,288.0,0.06997840172786177,205.0,0.27019438444924404,83.0,1.0399568034557236,205,18.8,329,9.04,,,,,,,,,,
B12,2023-01-01,07:00:00,,,229.0,0.06997840172786177,198.0,0.20993520518358533,,,185,18.7,332,8.02,,,,,,,,,,
B12,2023-01-01,08:00:00,,,247.0,0.05053995680345572,192.0,0.3207343412526998,101.0,1.0205183585313176,185,18.7,326,5.74,,,,,,,,,,
B12,2023-01-01,09:00:00,,,193.0,0.06997840172786177,44.0,0.27991360691144707,,,187,18.7,325,4.8,,,,,,,,,,
B12,2023-01-01,10:00:00,,,350.0,0.05053995680345572,144.0,0.06997840172786177,177.0,0.6006479481641469,192,18.8,321,3.71,,,,,,,,,,
B12,2023-01-01,11:00:00,,,227.0,0.05053995680345572,195.0,0.34989200863930886,,,194,18.8,297,3.74,,,,,,,,,,
B12,2023-01-01,12:00:00,,,204.0,0.13995680345572353,201.0,0.48984881209503245,,,197,18.7,315,2.3,,,,,,,,,,
B12,2023-01-01,13:00:00,,,223.0,0.06025917926565874,189.0,0.22937365010799138,,,193,18.7,260,2.91,,,,,,,,,,
B12,2023-01-01,14:00:00,,,231.0,0.06025917926565874,207.0,0.3304535637149028,,,191,18.7,250,3.49,,,,,,,,,,
B12,2023-01-01,15:00:00,,,281.0,0.19049676025917928,195.0,0.3907127429805616,,,184,18.7,242,3.61,,,,,,,,,,
B12,2023-01-01,16:00:00,,,200.0,0.06025917926565874,188.0,0.27991360691144707,,,193,18.7,263,4.51,,,,,,,,,,
B12,2023-01-01,17:00:00,,,193.0,0.06025917926565874,179.0,0.3596112311015119,83.0,0.6609071274298056,154,18.7,266,7.24,,,,,,,,,,
B12,2023-01-01,18:00:00,,,,,,,,,142,18.6,297,7.1,,,,,,,,,,
B12,2023-01-01,19:00:00,,,315.0,0.27991360691144707,180.0,0.15939524838012958,73.0,2.340388768898488,147,18.6,308,9.88,,,,,,,,,,
B12,2023-01-01,20:00:00,,,67.0,0.06025917926565874,172.0,0.2002159827213823,103.0,2.019654427645788,159,18.6,321,8.22,,,,,,,,,,
B12,2023-01-01,21:00:00,,,249.0,0.21965442764578835,194.0,0.45097192224622035,159.0,0.37904967602591794,164,18.6,332,7.88,,,,,,,,,,
B12,2023-01-01,22:00:00,,,205.0,0.05053995680345572,171.0,0.41987041036717065,117.0,1.5103671706263497,173,18.6,314,7.03,,,,,,,,,,
B12,2023-01-01,23:00:00,,,217.0,0.06997840172786177,193.0,0.4704103671706264,136.0,1.2907127429805616,181,18.6,315,6.45,,,,,,,,,,
B12,2023-01-02,00:00:00,,,237.0,0.11079913606911447,213.0,0.5501079913606911,115.0,1.9807775377969763,187,18.6,321,5.43,,,,,,,,,,
B12,2023-01-02,01:00:00,,,165.0,0.12051835853131748,193.0,0.520950323974082,,,188,18.6,328,6.56,,,,,,,,,,
B12,2023-01-02,02:00:00,,,234.0,0.07969762419006479,201.0,0.41987041036717065,73.0,0.9,192,18.6,333,8.98,,,,,,,,,,
B12,2023-01-02,03:00:00,,,233.0,0.13995680345572353,190.0,0.4004319654427646,125.0,0.6706263498920086,185,18.6,338,10.57,,,,,,,,,,
B12,2023-01-02,04:00:00,,,212.0,0.22937365010799138,219.0,0.27019438444924404,88.0,0.8300215982721383,180,18.6,346,7.17,,,,,,,,,,
B12,2023-01-02,05:00:00,,,177.0,0.3207343412526998,166.0,0.250755939524838,134.0,1.0302375809935205,165,18.6,347,5.15,,,,,,,,,,
B12,2023-01-02,06:00:00,,,235.0,0.009719222462203024,153.0,0.27019438444924404,,,163,18.5,346,5.05,,,,,,,,,,
B12,2023-01-02,07:00:00,,,222.0,0.029157667386609073,157.0,0.2993520518358531,211.0,1.179913606911447,149,18.5,332,5.18,,,,,,,,,,
B12,2023-01-02,08:00:00,,,181.0,0.06997840172786177,144.0,0.3693304535637149,93.0,0.9,148,18.5,332,5.54,,,,,,,,,,
B12,2023-01-02,09:00:00,,,210.0,0.07969762419006479,136.0,0.3907127429805616,,,146,18.5,321,5.7,,,,,,,,,,
B12,2023-01-02,10:00:00,,,234.0,0.05053995680345572,153.0,0.30907127429805614,,,148,18.6,304,6.39,,,,,,,,,,
B12,2023-01-02,11:00:00,,,220.0,0.05053995680345572,156.0,0.2993520518358531,,,155,18.6,319,7.13,,,,,,,,,,
B12,2023-01-02,12:00:00,,,182.0,0.08941684665226782,170.0,0.3304535637149028,146.0,2.140172786177106,168,18.6,315,5.56,,,,,,,,,,
B12,2023-01-02,13:00:00,,,262.0,0.019438444924406047,186.0,0.27991360691144707,,,176,18.7,288,1.89,,,,,,,,,,
B12,2023-01-02,14:00:00,,,199.0,0.0408207343412527,188.0,0.3596112311015119,,,173,18.7,231,0.66,,,,,,,,,,
B12,2023-01-02,15:00:00,,,210.0,0.05053995680345572,191.0,0.3304535637149028,33.0,1.7708423326133909,178,18.7,200,1.78,,,,,,,,,,
B12,2023-01-02,16:00:00,,,198.0,0.0408207343412527,187.0,0.27991360691144707,,,171,18.7,195,2.5,,,,,,,,,,
B12,2023-01-02,17:00:00,,,159.0,0.06025917926565874,147.0,0.260475161987041,59.0,1.1293736501079914,149,18.7,235,1.9,,,,,,,,,,
B12,2023-01-02,18:00:00,,,118.0,0.15939524838012958,116.0,0.2993520518358531,,,134,18.7,321,7.75,,,,,,,,,,
B12,2023-01-02,19:00:00,,,136.0,0.12051835853131748,109.0,0.41987041036717065,51.0,1.0205183585313176,139,18.6,311,11.14,,,,,,,,,,
B12,2023-01-02,20:00:00,,,149.0,0.05053995680345572,142.0,0.3693304535637149,77.0,1.1293736501079914,139,18.7,308,9.95,,,,,,,,,,
B12,2023-01-02,21:00:00,,,79.0,0.0408207343412527,144.0,0.4801295896328294,94.0,1.0807775377969762,138,18.7,311,8.99,,,,,,,,,,
B12,2023-01-02,22:00:00,,,191.0,0.029157667386609073,168.0,0.5092872570194384,93.0,0.9894168466522679,136,18.7,295,8.78,,,,,,,,,,
B12,2023-01-02,23:00:00,,,167.0,0.06025917926565874,161.0,0.27991360691144707,108.0,0.7892008639308855,140,18.7,307,9.91,,,,,,,,,,
B12,2023-01-03,00:00:00,,,285.0,0.06997840172786177,206.0,0.27019438444924404,128.0,0.7503239740820734,161,18.7,304,10.11,,,,,,,,,,
B12,2023-01-03,01:00:00,,,263.0,0.029157667386609073,203.0,0.2993520518358531,92.0,0.7794816414686825,186,18.7,321,8.33,,,,,,,,,,
B12,2023-01-03,02:00:00,,,247.0,0.029157667386609073,204.0,0.4004319654427646,91.0,0.7794816414686825,185,18.7,300,6.64,,,,,,,,,,
B12,2023-01-03,03:00:00,,,264.0,0.029157667386609073,224.0,0.27991360691144707,87.0,0.8300215982721383,190,18.7,318,6.17,,,,,,,,,,
B12,2023-01-03,04:00:00,,,217.0,0.0408207343412527,181.0,0.27991360691144707,80.0,0.7406047516198704,182,18.7,346,6.37,,,,,,,,,,
B12,2023-01-03,05:00:00,,,196.0,0.12051835853131748,167.0,0.2390928725701944,87.0,0.639524838012959,177,18.6,332,7.15,,,,,,,,,,
B12,2023-01-03,06:00:00,,,200.0,0.09913606911447084,142.0,0.18077753779697625,76.0,0.639524838012959,172,18.6,336,6.68,,,,,,,,,,
B12,2023-01-03,07:00:00,,,334.0,0.019438444924406047,142.0,0.21965442764578835,98.0,0.649244060475162,155,18.6,321,6.46,,,,,,,,,,
B12,2023-01-03,08:00:00,,,160.0,0.06025917926565874,124.0,0.20993520518358533,165.0,0.4995680345572354,138,18.6,330,6.71,,,,,,,,,,
B12,2023-01-03,09:00:00,,,213.0,0.029157667386609073,128.0,0.18077753779697625,,,149,18.6,353,6.12,,,,,,,,,,
B12,2023-01-03,10:00:00,,,184.0,0.06025917926565874,111.0,0.20993520518358533,82.0,3.6505399568034558,144,18.6,325,5.91,,,,,,,,,,
B12,2023-01-03,11:00:00,,,239.0,0.05053995680345572,116.0,0.19049676025917928,,,143,18.6,311,4.1,,,,,,,,,,
B12,2023-01-03,12:00:00,,,186.0,0.13995680345572353,171.0,0.05053995680345572,,,159,18.6,346,2.39,,,,,,,,,,
B12,2023-01-03,13:00:00,,,239.0,0.029157667386609073,164.0,0.09913606911447084,,,151,18.7,312,2.41,,,,,,,,,,
B12,2023-01-03,14:00:00,,,228.0,0.029157667386609073,159.0,0.1302375809935205,,,124,18.7,250,4.15,,,,,,,,,,
B12,2023-01-03,15:00:00,,,130.0,0.029157667386609073,183.0,0.09913606911447084,,,51,18.7,222,2.35,,,,,,,,,,
B12,2023-01-03,16:00:00,,,131.0,0.019438444924406047,166.0,0.07969762419006479,83.0,0.7503239740820734,64,18.6,231,3.04,,,,,,,,,,
B12,2023-01-03,17:00:00,,,103.0,0.08941684665226782,61.0,0.08941684665226782,74.0,0.5695464362850972,78,18.6,302,3.52,,,,,,,,,,
B12,2023-01-03,18:00:00,,,182.0,0.0408207343412527,168.0,0.06997840172786177,84.0,0.520950323974082,103,18.6,328,5.78,,,,,,,,,,
B12,2023-01-03,19:00:00,,,58.0,0.019438444924406047,66.0,0.250755939524838,124.0,0.639524838012959,140,18.6,326,8.3,,,,,,,,,,
B12,2023-01-03,20:00:00,,,45.0,0.05053995680345572,85.0,0.1691144708423326,128.0,0.639524838012959,82,18.6,326,7.3,,,,,,,,,,
B12,2023-01-03,21:00:00,,,156.0,0.0408207343412527,154.0,0.21965442764578835,102.0,0.7095032397408207,118,18.6,321,9.23,,,,,,,,,,
B12,2023-01-03,22:00:00,,,145.0,0.07969762419006479,134.0,0.4004319654427646,91.0,0.7892008639308855,131,18.6,311,7.73,,,,,,,,,,
B12,2023-01-03,23:00:00,,,153.0,0.029157667386609073,140.0,0.3693304535637149,91.0,0.7892008639308855,120,18.5,291,6.31,,,,,,,,,,
B12,2023-01-04,00:00:00,,,176.0,0.0408207343412527,138.0,0.27019438444924404,89.0,1.0302375809935205,135,18.5,311,7.22,,,,,,,,,,
B12,2023-01-04,01:00:00,,,243.0,0.06025917926565874,175.0,0.19049676025917928,87.0,0.7308855291576674,142,18.5,304,7.62,,,,,,,,,,
B12,2023-01-04,02:00:00,,,280.0,0.029157667386609073,235.0,0.1302375809935205,94.0,0.6609071274298056,163,18.5,304,8.69,,,,,,,,,,
B12,2023-01-04,03:00:00,,,319.0,0.0408207343412527,243.0,0.1691144708423326,141.0,0.7697624190064795,9,18.5,302,9.51,,,,,,,,,,
B12,2023-01-04,04:00:00,,,0.0,0.0408207343412527,229.0,0.21965442764578835,100.0,0.4606911447084234,179,18.4,321,10.38,,,,,,,,,,
B12,2023-01-04,05:00:00,,,292.0,0.13995680345572353,274.0,0.2993520518358531,139.0,0.9699784017278619,47,18.5,328,7.9,,,,,,,,,,
B12,2023-01-04,06:00:00,,,252.0,0.029157667386609073,207.0,0.19049676025917928,112.0,0.4393088552915767,108,18.4,328,6.01,,,,,,,,,,
B12,2023-01-04,07:00:00,,,322.0,0.009719222462203024,14.0,0.05053995680345572,129.0,0.7697624190064795,178,18.4,308,4.32,,,,,,,,,,
B12,2023-01-04,08:00:00,,,87.0,0.06997840172786177,152.0,0.009719222462203024,144.0,0.41015118790496763,184,18.4,308,6.33,,,,,,,,,,
B12,2023-01-04,09:00:00,,,155.0,0.019438444924406047,46.0,0.12051835853131748,114.0,0.4004319654427646,102,18.4,309,5.84,,,,,,,,,,
B12,2023-01-04,10:00:00,,,64.0,0.07969762419006479,87.0,0.21965442764578835,,,210,18.4,287,4.91,,,,,,,,,,
B12,2023-01-04,11:00:00,,,104.0,0.019438444924406047,115.0,0.09913606911447084,,,244,18.4,283,5.14,,,,,,,,,,
B12,2023-01-04,12:00:00,,,336.0,0.019438444924406047,112.0,0.19049676025917928,,,278,18.4,308,6.31,,,,,,,,,,
B12,2023-01-04,13:00:00,,,348.0,0.019438444924406047,160.0,0.08941684665226782,,,282,18.4,287,4.86,,,,,,,,,,
B12,2023-01-04,14:00:00,,,332.0,0.019438444924406047,193.0,0.07969762419006479,331.0,1.1390928725701943,291,18.4,277,3.66,,,,,,,,,,
B12,2023-01-04,15:00:00,,,248.0,0.029157667386609073,263.0,0.06997840172786177,168.0,1.5492440604751618,256,18.4,266,4.2,,,,,,,,,,
B12,2023-01-04,16:00:00,,,288.0,0.019438444924406047,251.0,0.07969762419006479,48.0,0.27019438444924404,189,18.4,302,8.75,,,,,,,,,,
B12,2023-01-04,17:00:00,,,208.0,0.019438444924406047,292.0,0.14967602591792656,,,358,18.4,305,11.51,,,,,,,,,,
B12,2023-01-04,18:00:00,,,289.0,0.09913606911447084,287.0,0.12051835853131748,48.0,0.20993520518358533,332,18.4,301,10.65,,,,,,,,,,
B12,2023-01-04,19:00:00,,,349.0,0.05053995680345572,94.0,0.11079913606911447,57.0,0.5501079913606911,133,18.3,319,8.59,,,,,,,,,,
B12,2023-01-04,20:00:00,,,91.0,0.0408207343412527,47.0,0.27991360691144707,56.0,0.620086393088553,85,18.4,319,8.38,,,,,,,,,,
B12,2023-01-04,21:00:00,,,126.0,0.029157667386609073,68.0,0.22937365010799138,55.0,0.5695464362850972,113,18.3,315,8.37,,,,,,,,,,
B12,2023-01-04,22:00:00,,,103.0,0.029157667386609073,86.0,0.27991360691144707,84.0,0.629805615550756,79,18.3,283,7.3,,,,,,,,,,
B12,2023-01-04,23:00:00,,,,0.0,99.0,0.20993520518358533,43.0,0.6706263498920086,115,18.3,301,6.33,,,,,,,,,,
B12,2023-01-05,00:00:00,,,343.0,0.0408207343412527,94.0,0.1302375809935205,56.0,0.7697624190064795,199,18.3,314,7.27,,,,,,,,,,
B12,2023-01-05,01:00:00,,,49.0,0.07969762419006479,36.0,0.27991360691144707,54.0,0.880561555075594,83,18.3,315,7.65,,,,,,,,,,
B12,2023-01-05,02:00:00,,,310.0,0.08941684665226782,335.0,0.13995680345572353,70.0,0.639524838012959,166,18.3,315,7.82,,,,,,,,,,
B12,2023-01-05,03:00:00,,,345.0,0.07969762419006479,4.0,0.1302375809935205,109.0,0.5501079913606911,163,18.2,315,7.06,,,,,,,,,,
B12,2023-01-05,04:00:00,,,314.0,0.08941684665226782,317.0,0.22937365010799138,86.0,0.620086393088553,172,18.2,325,7.67,,,,,,,,,,
B12,2023-01-05,05:00:00,,,296.0,0.06997840172786177,319.0,0.11079913606911447,87.0,0.620086393088553,177,18.2,315,6.75,,,,,,,,,,
B12,2023-01-05,06:00:00,,,328.0,0.09913606911447084,329.0,0.2002159827213823,101.0,0.4004319654427646,168,18.2,321,7.03,,,,,,,,,,
B12,2023-01-05,07:00:00,,,267.0,0.029157667386609073,313.0,0.1691144708423326,65.0,0.520950323974082,145,18.2,325,5.61,,,,,,,,,,
B12,2023-01-05,08:00:00,,,323.0,0.08941684665226782,330.0,0.250755939524838,106.0,1.3801295896328294,155,18.2,319,4.9,,,,,,,,,,
B12,2023-01-05,09:00:00,,,339.0,0.029157667386609073,2.0,0.2002159827213823,,,159,18.2,323,6.57,,,,,,,,,,
B12,2023-01-05,10:00:00,,,321.0,0.07969762419006479,10.0,0.250755939524838,,,167,18.2,301,3.42,,,,,,,,,,
B12,2023-01-05,11:00:00,,,335.0,0.11079913606911447,12.0,0.22937365010799138,,,171,18.2,311,5.5,,,,,,,,,,
B12,2023-01-05,12:00:00,,,356.0,0.06025917926565874,20.0,0.21965442764578835,,,191,18.2,253,3.52,,,,,,,,,,
B12,2023-01-05,13:00:00,,,18.0,0.07969762419006479,36.0,0.260475161987041,,,208,18.2,287,3.21,,,,,,,,,,
B12,2023-01-05,14:00:00,,,28.0,0.05053995680345572,73.0,0.20993520518358533,,,255,18.2,233,0.9,,,,,,,,,,
B12,2023-01-05,15:00:00,,,339.0,0.0408207343412527,45.0,0.18077753779697625,,,239,18.2,183,1.32,,,,,,,,,,
B12,2023-01-05,16:00:00,,,284.0,0.09913606911447084,310.0,0.27019438444924404,,,118,18.2,107,0.64,,,,,,,,,,
B12,2023-01-05,17:00:00,,,268.0,0.11079913606911447,304.0,0.27991360691144707,54.0,0.9408207343412528,114,18.2,145,1.12,,,,,,,,,,
B12,2023-01-05,18:00:00,,,292.0,0.12051835853131748,330.0,0.34017278617710583,50.0,0.27991360691144707,122,18.2,263,2.51,,,,,,,,,,
B12,2023-01-05,19:00:00,,,323.0,0.22937365010799138,353.0,0.27991360691144707,69.0,0.37904967602591794,141,18.1,321,9.0,,,,,,,,,,
B12,2023-01-05,20:00:00,,,310.0,0.13995680345572353,359.0,0.260475161987041,82.0,0.3304535637149028,153,18.1,318,9.92,,,,,,,,,,
B12,2023-01-05,21:00:00,,,327.0,0.06997840172786177,38.0,0.1691144708423326,95.0,0.5092872570194384,169,18.1,328,8.4,,,,,,,,,,
B12,2023-01-05,22:00:00,,,265.0,0.1302375809935205,34.0,0.21965442764578835,55.0,0.3596112311015119,141,18.1,325,7.48,,,,,,,,,,
B12,2023-01-05,23:00:00,,,79.0,0.029157667386609073,37.0,0.14967602591792656,67.0,0.4801295896328294,110,18.1,304,5.86,,,,,,,,,,
B12,2023-01-06,00:00:00,,,69.0,0.09913606911447084,97.0,0.34017278617710583,97.0,0.4704103671706264,226,18.0,336,6.75,,,,,,,,,,
B12,2023-01-06,01:00:00,,,53.0,0.08941684665226782,108.0,0.3596112311015119,64.0,0.4004319654427646,226,18.0,325,4.73,,,,,,,,,,
B12,2023-01-06,02:00:00,,,113.0,0.1302375809935205,97.0,0.3693304535637149,62.0,0.5598272138228941,129,18.0,339,5.12,,,,,,,,,,
B12,2023-01-06,03:00:00,,,173.0,0.08941684665226782,125.0,0.1691144708423326,70.0,0.5403887688984881,148,18.0,314,8.23,,,,,,,,,,
B12,2023-01-06,04:00:00,,,198.0,0.05053995680345572,136.0,0.2390928725701944,77.0,0.4801295896328294,170,18.0,311,7.4,,,,,,,,,,
B12,2023-01-06,05:00:00,,,247.0,0.009719222462203024,129.0,0.20993520518358533,63.0,0.8105831533477322,272,18.0,308,7.26,,,,,,,,,,
B12,2023-01-06,06:00:00,,,30.0,0.029157667386609073,78.0,0.13995680345572353,95.0,0.6997840172786177,286,18.0,318,6.52,,,,,,,,,,
B12,2023-01-06,07:00:00,,,358.0,0.009719222462203024,16.0,0.13995680345572353,114.0,0.629805615550756,167,18.0,339,6.01,,,,,,,,,,
B12,2023-01-06,08:00:00,,,188.0,0.019438444924406047,69.0,0.18077753779697625,13.0,1.1099352051835853,151,18.0,322,3.83,,,,,,,,,,
B12,2023-01-06,09:00:00,,,86.0,0.029157667386609073,44.0,0.2002159827213823,,,63,18.0,17,2.95,,,,,,,,,,
B12,2023-01-06,10:00:00,,,48.0,0.0408207343412527,56.0,0.3207343412526998,,,53,18.1,353,2.21,,,,,,,,,,
B12,2023-01-06,11:00:00,,,74.0,0.0408207343412527,40.0,0.22937365010799138,,,61,18.1,323,3.52,,,,,,,,,,
B12,2023-01-06,12:00:00,,,113.0,0.029157667386609073,67.0,0.4004319654427646,,,70,18.1,325,2.14,,,,,,,,,,
B12,2023-01-06,13:00:00,,,90.0,0.06025917926565874,69.0,0.3304535637149028,,,77,18.1,294,2.15,,,,,,,,,,
B12,2023-01-06,14:00:00,,,82.0,0.09913606911447084,76.0,0.4801295896328294,149.0,0.6997840172786177,78,18.1,255,2.68,,,,,,,,,,
B12,2023-01-06,15:00:00,,,98.0,0.08941684665226782,70.0,0.3907127429805616,17.0,0.6997840172786177,73,18.1,222,1.2,,,,,,,,,,
B12,2023-01-06,16:00:00,,,132.0,0.05053995680345572,95.0,0.27019438444924404,70.0,0.34017278617710583,94,18.1,214,1.78,,,,,,,,,,
B12,2023-01-06,17:00:00,,,143.0,0.029157667386609073,101.0,0.11079913606911447,101.0,0.2993520518358531,83,18.1,217,3.45,,,,,,,,,,
B12,2023-01-06,18:00:00,,,,,,,,,68,18.0,257,5.18,,,,,,,,,,
B12,2023-01-06,19:00:00,,,154.0,0.0408207343412527,108.0,0.07969762419006479,73.0,0.27991360691144707,77,18.0,273,4.82,,,,,,,,,,
B12,2023-01-06,20:00:00,,,8.0,0.06025917926565874,63.0,0.18077753779697625,58.0,0.34989200863930886,81,18.0,260,7.24,,,,,,,,,,
B12,2023-01-06,21:00:00,,,123.0,0.019438444924406047,61.0,0.13995680345572353,82.0,0.27019438444924404,86,18.0,266,6.36,,,,,,,,,,
B12,2023-01-06,22:00:00,,,125.0,0.07969762419006479,92.0,0.19049676025917928,63.0,0.3596112311015119,95,18.0,267,6.31,,,,,,,,,,
B12,2023-01-06,23:00:00,,,153.0,0.06025917926565874,123.0,0.30907127429805614,87.0,0.4393088552915767,95,18.0,259,6.04,,,,,,,,,,
B12,2023-01-07,00:00:00,,,119.0,0.06997840172786177,121.0,0.27991360691144707,83.0,0.5501079913606911,99,18.0,285,5.2,,,,,,,,,,
B12,2023-01-07,01:00:00,,,127.0,0.06025917926565874,100.0,0.30907127429805614,70.0,0.5092872570194384,92,18.0,256,4.27,,,,,,,,,,
B12,2023-01-07,02:00:00,,,112.0,0.05053995680345572,101.0,0.27019438444924404,69.0,0.6006479481641469,97,18.0,266,6.42,,,,,,,,,,
B12,2023-01-07,03:00:00,,,155.0,0.05053995680345572,108.0,0.22937365010799138,99.0,0.4295896328293737,108,18.0,270,4.63,,,,,,,,,,
B12,2023-01-07,04:00:00,,,158.0,0.05053995680345572,143.0,0.2002159827213823,96.0,0.5403887688984881,105,18.0,260,4.54,,,,,,,,,,
B12,2023-01-07,05:00:00,,,188.0,0.05053995680345572,131.0,0.27991360691144707,104.0,0.4393088552915767,132,18.0,304,3.74,,,,,,,,,,
B12,2023-01-07,06:00:00,,,233.0,0.019438444924406047,130.0,0.18077753779697625,82.0,0.3907127429805616,143,18.0,315,3.8,,,,,,,,,,
B12,2023-01-07,07:00:00,,,232.0,0.009719222462203024,216.0,0.07969762419006479,102.0,0.45097192224622035,83,18.0,328,3.61,,,,,,,,,,
B12,2023-01-07,08:00:00,,,268.0,0.029157667386609073,242.0,0.05053995680345572,244.0,1.8796976241900647,186,17.9,349,8.99,,,,,,,,,,
B12,2023-01-07,09:00:00,,,357.0,0.06025917926565874,28.0,0.07969762419006479,,,202,18.0,352,6.42,,,,,,,,,,
B12,2023-01-07,10:00:00,,,279.0,0.029157667386609073,77.0,0.12051835853131748,93.0,3.1198704103671706,168,17.9,338,5.88,,,,,,,,,,
B12,2023-01-07,11:00:00,,,66.0,0.019438444924406047,40.0,0.12051835853131748,22.0,0.629805615550756,87,17.9,290,8.19,,,,,,,,,,
B12,2023-01-07,12:00:00,,,113.0,0.2002159827213823,118.0,0.520950323974082,,,99,17.9,281,12.54,,,,,,,,,,
B12,2023-01-07,13:00:00,,,142.0,0.27991360691144707,96.0,0.3907127429805616,,,110,17.9,281,13.98,,,,,,,,,,
B12,2023-01-07,14:00:00,,,135.0,0.34989200863930886,110.0,0.41987041036717065,,,114,17.9,283,13.28,,,,,,,,,,
B12,2023-01-07,15:00:00,,,161.0,0.250755939524838,93.0,0.41987041036717065,,,103,17.9,297,9.69,,,,,,,,,,
B12,2023-01-07,16:00:00,,,167.0,0.19049676025917928,101.0,0.34989200863930886,104.0,0.3907127429805616,113,18.0,294,7.64,,,,,,,,,,
B12,2023-01-07,17:00:00,,,140.0,0.11079913606911447,122.0,0.3693304535637149,125.0,0.260475161987041,105,18.0,315,10.6,,,,,,,,,,
B12,2023-01-07,18:00:00,,,86.0,0.27991360691144707,85.0,0.3907127429805616,99.0,0.5501079913606911,95,18.0,330,10.08,,,,,,,,,,
B12,2023-01-07,19:00:00,,,131.0,0.1691144708423326,123.0,0.27991360691144707,117.0,0.4704103671706264,113,17.9,304,11.85,,,,,,,,,,
B12,2023-01-07,20:00:00,,,124.0,0.08941684665226782,98.0,0.18077753779697625,60.0,0.41987041036717065,113,17.9,304,10.35,,,,,,,,,,
B12,2023-01-07,21:00:00,,,94.0,0.05053995680345572,72.0,0.3304535637149028,111.0,0.3304535637149028,89,17.9,293,6.58,,,,,,,,,,
B12,2023-01-07,22:00:00,,,86.0,0.05053995680345572,76.0,0.2390928725701944,49.0,0.2390928725701944,81,17.9,284,7.72,,,,,,,,,,
B12,2023-01-07,23:00:00,,,,0.0,68.0,0.1691144708423326,73.0,0.4393088552915767,84,17.9,287,8.92,,,,,,,,,,
B12,2023-01-08,00:00:00,,,63.0,0.029157667386609073,81.0,0.21965442764578835,84.0,0.37904967602591794,93,17.9,285,8.83,,,,,,,,,,
B12,2023-01-08,01:00:00,,,22.0,0.06997840172786177,12.0,0.30907127429805614,81.0,0.4801295896328294,25,17.8,301,10.25,,,,,,,,,,
B12,2023-01-08,02:00:00,,,88.0,0.08941684665226782,68.0,0.3693304535637149,76.0,0.4801295896328294,101,17.8,301,8.87,,,,,,,,,,
B12,2023-01-08,03:00:00,,,82.0,0.15939524838012958,70.0,0.6706263498920086,91.0,0.37904967602591794,78,17.8,308,7.73,,,,,,,,,,
B12,2023-01-08,04:00:00,,,84.0,0.2002159827213823,79.0,0.6609071274298056,91.0,0.4995680345572354,82,17.8,309,8.43,,,,,,,,,,
B12,2023-01-08,05:00:00,,,100.0,0.22937365010799138,101.0,0.7503239740820734,119.0,0.5403887688984881,88,17.8,307,8.23,,,,,,,,,,
B12,2023-01-08,06:00:00,,,95.0,0.11079913606911447,78.0,0.6997840172786177,103.0,0.5306695464362851,93,17.8,321,6.15,,,,,,,,,,
B12,2023-01-08,07:00:00,,,145.0,0.029157667386609073,83.0,0.45097192224622035,84.0,0.3207343412526998,91,17.8,328,4.24,,,,,,,,,,
B12,2023-01-08,08:00:00,,,125.0,0.06025917926565874,77.0,0.34989200863930886,186.0,2.0390928725701944,97,17.8,335,4.76,,,,,,,,,,
B12,2023-01-08,09:00:00,,,122.0,0.05053995680345572,107.0,0.14967602591792656,,,85,17.8,326,3.58,,,,,,,,,,
B12,2023-01-08,10:00:00,,,78.0,0.05053995680345572,61.0,0.27019438444924404,249.0,2.85939524838013,74,17.8,312,4.29,,,,,,,,,,
B12,2023-01-08,11:00:00,,,118.0,0.0408207343412527,79.0,0.2390928725701944,,,92,17.8,304,5.54,,,,,,,,,,
B12,2023-01-08,12:00:00,,,109.0,0.06025917926565874,73.0,0.2993520518358531,,,86,17.9,302,4.75,,,,,,,,,,
B12,2023-01-08,13:00:00,,,91.0,0.07969762419006479,71.0,0.2002159827213823,,,83,17.9,285,4.57,,,,,,,,,,
B12,2023-01-08,14:00:00,,,84.0,0.06025917926565874,61.0,0.37904967602591794,163.0,0.7794816414686825,72,17.9,274,5.92,,,,,,,,,,
B12,2023-01-08,15:00:00,,,77.0,0.05053995680345572,63.0,0.4801295896328294,13.0,1.8505399568034557,65,17.9,245,4.66,,,,,,,,,,
B12,2023-01-08,16:00:00,,,80.0,0.05053995680345572,64.0,0.4295896328293737,79.0,0.250755939524838,60,17.9,203,2.86,,,,,,,,,,
B12,2023-01-08,17:00:00,,,59.0,0.07969762419006479,52.0,0.4704103671706264,139.0,0.5501079913606911,50,17.9,218,4.19,,,,,,,,,,
B12,2023-01-08,18:00:00,,,56.0,0.06997840172786177,49.0,0.4606911447084234,105.0,0.1691144708423326,40,17.8,200,3.61,,,,,,,,,,
B12,2023-01-08,19:00:00,,,32.0,0.09913606911447084,35.0,0.4393088552915767,108.0,0.3693304535637149,33,17.8,294,1.72,,,,,,,,,,
B12,2023-01-08,20:00:00,,,32.0,0.09913606911447084,62.0,0.3207343412526998,89.0,0.21965442764578835,38,17.8,325,2.17,,,,,,,,,,
B12,2023-01-08,21:00:00,,,29.0,0.08941684665226782,77.0,0.1691144708423326,96.0,0.13995680345572353,37,17.7,333,3.76,,,,,,,,,,
B12,2023-01-08,22:00:00,,,30.0,0.029157667386609073,57.0,0.1302375809935205,63.0,0.27991360691144707,75,17.6,332,5.8,,,,,,,,,,
B12,2023-01-08,23:00:00,,,295.0,0.08941684665226782,349.0,0.13995680345572353,90.0,0.19049676025917928,120,17.6,329,4.64,,,,,,,,,,
B12,2023-01-09,00:00:00,,,331.0,0.0408207343412527,350.0,0.15939524838012958,34.0,0.27019438444924404,126,17.7,350,3.66,,,,,,,,,,